Retour au catalogue

METEOR 2-8 DEB

ActifPO
NORAD 38289·DEBRIS·🇷🇺 Russia

Lancé Mar 25, 1982 depuis Plesetsk Cosmodrome

Loading…

Prochains Passages (prochaines 24 heures)

TLE

FraisSource: Space-Track

Époque: Sep 12, 2026, 08:53 UTC

1 38289U 82025BF  26255.37023403  .00001422  00000-0  58984-3 0  9995
2 38289  82.5251 128.2451 0016798 195.9296 164.1362 14.25887248347129

Suivez METEOR 2-8 DEB en temps réel avec AllMySat

Download on the App Store